FW9412 Weather Reports


time (UTC)temp
C
wind
direction
speed
KPH
gust
KPH
rain 1hr
cm
rain 24hr
cm
rain mn
cm
humidity
%
barometer
mb
20260504070108 10 207 4.8 4.8 0.00 0.00 0.00 56 1008.5
20260504050456 10 198 3.2 3.2 0.00 0.00 0.00 56 1008.8
20260504045953 10 206 3.2 3.2 0.00 0.00 0.00 55 1008.8
20260504045449 11 203 3.2 3.2 0.00 0.00 0.00 55 1008.8
20260504044946 11 200 1.6 3.2 0.00 0.00 0.00 55 1008.8
20260504044443 11 211 3.2 3.2 0.00 0.00 0.00 55 1009.0
20260504043940 10 220 3.2 3.2 0.00 0.00 0.00 56 1008.7
20260504043437 11 213 3.2 3.2 0.00 0.00 0.00 57 1008.9
20260504042935 11 212 3.2 3.2 0.00 0.00 0.00 57 1008.9
20260504042431 11 200 3.2 3.2 0.00 0.00 0.00 57 1008.9
20260504041928 11 203 1.6 3.2 0.00 0.00 0.00 58 1008.8
20260504041424 11 216 3.2 3.2 0.00 0.00 0.00 56 1008.8
20260504040920 11 213 4.8 4.8 0.00 0.00 0.00 56 1008.7
20260504040418 11 203 3.2 3.2 0.00 0.00 0.00 56 1008.7
20260504035914 11 205 3.2 3.2 0.00 0.00 0.00 56 1008.9
20260504035412 11 201 3.2 3.2 0.00 0.00 0.00 57 1009.0
20260504034908 11 211 3.2 3.2 0.00 0.00 0.00 56 1009.0
20260504034406 11 212 3.2 3.2 0.00 0.00 0.00 57 1009.0
20260504033903 11 213 3.2 3.2 0.00 0.00 0.00 57 1008.9
20260504033400 10 203 3.2 3.2 0.00 0.00 0.00 58 1009.2
20260504032857 11 227 3.2 3.2 0.00 0.00 0.00 58 1009.1
20260504032354 11 204 1.6 3.2 0.00 0.00 0.00 58 1009.2
20260504031850 10 217 3.2 3.2 0.00 0.00 0.00 58 1009.1
20260504031348 10 212 3.2 3.2 0.00 0.00 0.00 59 1009.3
20260504030844 10 215 3.2 3.2 0.00 0.00 0.00 59 1009.1
20260504030342 10 211 3.2 3.2 0.00 0.00 0.00 59 1009.4
20260504025837 10 205 3.2 3.2 0.00 0.00 0.00 60 1009.3
20260504025335 10 212 3.2 4.8 0.00 0.00 0.00 60 1009.2
20260504024831 10 213 3.2 3.2 0.00 0.00 0.00 60 1009.4
20260504024327 10 226 3.2 3.2 0.00 0.00 0.00 60 1009.3
20260504023824 10 204 1.6 1.6 0.00 0.00 0.00 62 1009.5
20260504023321 10 200 3.2 3.2 0.00 0.00 0.00 62 1009.2
20260504022817 10 219 1.6 3.2 0.00 0.00 0.00 63 1009.4
20260504022314 10 194 1.6 1.6 0.00 0.00 0.00 64 1009.6
20260504021810 10 211 1.6 1.6 0.00 0.00 0.00 66 1009.7
20260504021308 10 211 3.2 3.2 0.00 0.00 0.00 65 1009.8
20260504020805 10 220 4.8 4.8 0.00 0.00 0.00 67 1009.8
20260504020302 9 227 4.8 8.0 0.00 0.00 0.00 69 1010.1
20260504015757 9 215 4.8 4.8 0.00 0.00 0.00 69 1009.9
20260504015254 9 191 1.6 3.2 0.00 0.00 0.00 71 1009.8
20260504014750 9 219 4.8 4.8 0.00 0.00 0.00 69 1010.0
20260504014246 10 262 8.0 11.3 0.00 0.00 0.00 69 1010.3
20260504013744 10 270 11.3 12.9 0.00 0.00 0.00 64 1010.3
20260504013242 11 251 12.9 14.5 0.00 0.00 0.00 60 1010.2
20260504012738 11 271 8.0 9.7 0.00 0.00 0.00 56 1009.8
20260504012236 11 177 6.4 8.0 0.00 0.00 0.00 55 1009.8
20260504011732 11 260 8.0 8.0 0.00 0.00 0.00 55 1010.0
20260504011229 11 228 4.8 8.0 0.00 0.00 0.00 54 1009.7
20260504010725 11 249 6.4 8.0 0.00 0.00 0.00 53 1009.7
20260504010221 11 223 4.8 4.8 0.00 0.00 0.00 55 1009.7
20260504005718 11 260 8.0 9.7 0.00 0.00 0.00 54 1009.4
20260504005215 11 266 8.0 9.7 0.00 0.00 0.00 54 1009.5
20260504004713 11 262 11.3 12.9 0.00 0.00 0.00 52 1009.5
20260504004210 11 275 14.5 14.5 0.00 0.00 0.00 51 1009.6
20260504003706 11 265 12.9 14.5 0.00 0.00 0.00 51 1009.4
20260504003203 12 260 17.7 17.7 0.00 0.00 0.00 50 1009.4
20260504002700 12 269 20.9 25.7 0.00 0.00 0.00 49 1009.3
20260504002157 12 261 19.3 27.4 0.00 0.00 0.00 49 1009.1
20260504001655 12 258 11.3 12.9 0.00 0.00 0.00 49 1009.1
20260504001151 12 199 9.7 11.3 0.00 0.00 0.00 48 1008.9
20260504000648 12 259 6.4 9.7 0.00 0.00 0.00 47 1009.3
20260504000145 12 254 6.4 8.0 0.00 0.00 0.00 49 1009.0
20260503235643 12 253 4.8 4.8 0.00 0.00 0.00 47 1008.7
20260503235140 11 218 3.2 3.2 0.00 0.00 0.00 47 1009.0
20260503234638 11 214 4.8 8.0 0.00 0.00 0.00 47 1008.6
20260503234136 11 209 4.8 4.8 0.00 0.00 0.00 48 1008.8
20260503233632 11 222 3.2 3.2 0.00 0.00 0.00 48 1008.5
20260503233128 11 230 6.4 8.0 0.00 0.00 0.00 48 1009.1
20260503232625 11 266 11.3 12.9 0.00 0.00 0.00 48 1009.1
20260503232122 11 252 8.0 9.7 0.00 0.00 0.00 51 1009.2
20260503231620 11 257 4.8 8.0 0.00 0.00 0.00 50 1009.4
20260503231117 11 225 6.4 8.0 0.00 0.00 0.00 50 1009.3
20260503230614 11 249 6.4 8.0 0.00 0.00 0.00 52 1009.4
20260503230111 11 228 8.0 9.7 0.00 0.00 0.00 49 1009.5
20260503225608 11 247 8.0 9.7 0.00 0.00 0.00 48 1009.4
20260503225107 11 225 8.0 9.7 0.00 0.00 0.00 49 1009.2
20260503224605 11 169 1.6 3.2 0.00 0.00 0.00 49 1009.5
20260503224103 11 235 4.8 4.8 0.00 0.00 0.00 47 1009.1
20260503223601 11 214 3.2 3.2 0.00 0.00 0.00 46 1009.2
20260503223056 11 222 4.8 8.0 0.00 0.00 0.00 49 1009.2
20260503222554 11 221 4.8 4.8 0.00 0.00 0.00 47 1009.1
20260503222052 12 237 4.8 4.8 0.00 0.00 0.00 46 1008.9
20260503221550 12 198 3.2 3.2 0.00 0.00 0.00 48 1009.1
20260503221047 12 186 1.6 3.2 0.00 0.00 0.00 46 1008.9
20260503220543 12 199 1.6 3.2 0.00 0.00 0.00 48 1009.1
20260503220040 12 196 1.6 1.6 0.00 0.00 0.00 47 1009.1
20260503215537 12 225 3.2 3.2 0.00 0.00 0.00 46 1009.0
20260503215034 11 180 1.6 1.6 0.00 0.00 0.00 48 1009.2
20260503214533 11 202 1.6 1.6 0.00 0.00 0.00 47 1009.1
20260503214029 11 254 6.4 8.0 0.00 0.00 0.00 47 1009.2
20260503213528 11 214 3.2 3.2 0.00 0.00 0.00 47 1009.3
20260503213024 11 180 6.4 8.0 0.00 0.00 0.00 47 1009.2
20260503212521 11 234 6.4 8.0 0.00 0.00 0.00 47 1009.3
20260503212018 11 206 8.0 8.0 0.00 0.00 0.00 46 1009.2
20260503211515 11 238 4.8 4.8 0.00 0.00 0.00 48 1009.1
20260503211011 11 235 3.2 3.2 0.00 0.00 0.00 50 1009.2
20260503210508 11 261 6.4 8.0 0.00 0.00 0.00 46 1009.4
20260503210004 11 250 8.0 9.7 0.00 0.00 0.00 48 1009.1
20260503205501 11 268 8.0 11.3 0.00 0.00 0.00 46 1009.3
20260503204956 11 157 4.8 4.8 0.00 0.00 0.00 48 1009.2
20260503204454 11 182 1.6 3.2 0.00 0.00 0.00 51 1009.3
20260503203950 11 257 6.4 8.0 0.00 0.00 0.00 50 1009.2
20260503203448 11 231 4.8 4.8 0.00 0.00 0.00 50 1009.5
20260503202944 11 198 1.6 1.6 0.00 0.00 0.00 53 1009.7
20260503202443 10 226 3.2 4.8 0.00 0.00 0.00 52 1009.7
20260503201941 10 230 3.2 4.8 0.00 0.00 0.00 53 1009.7
20260503201438 10 274 8.0 9.7 0.00 0.00 0.00 51 1009.8
20260503200936 11 243 6.4 8.0 0.00 0.00 0.00 51 1009.8
20260503200432 11 254 9.7 12.9 0.00 0.00 0.00 51 1009.9
20260503195928 10 262 8.0 9.7 0.00 0.00 0.00 51 1009.8
20260503195426 10 269 11.3 12.9 0.00 0.00 0.00 50 1009.9
20260503194922 10 244 8.0 9.7 0.00 0.00 0.00 51 1010.2
20260503194419 10 251 6.4 8.0 0.00 0.00 0.00 50 1010.0
20260503193915 10 249 9.7 11.3 0.00 0.00 0.00 51 1010.2
20260503193410 10 245 4.8 4.8 0.00 0.00 0.00 52 1010.2
20260503192906 10 260 8.0 8.0 0.00 0.00 0.00 50 1010.2
20260503192403 10 252 8.0 9.7 0.00 0.00 0.00 51 1010.3
20260503191859 10 242 6.4 9.7 0.00 0.00 0.00 51 1010.0
20260503191356 10 213 3.2 3.2 0.00 0.00 0.00 49 1010.2
20260503190852 10 257 11.3 12.9 0.00 0.00 0.00 49 1010.2
20260503190350 10 240 4.8 4.8 0.00 0.00 0.00 52 1010.2
20260503185846 10 289 6.4 8.0 0.00 0.00 0.00 52 1010.3
20260503185343 10 228 3.2 3.2 0.00 0.00 0.00 50 1010.4
20260503184842 10 252 6.4 8.0 0.00 0.00 0.00 50 1010.1
20260503184339 10 215 4.8 4.8 0.00 0.00 0.00 51 1010.5
20260503183835 10 244 8.0 9.7 0.00 0.00 0.00 48 1010.4
20260503183332 10 250 8.0 8.0 0.00 0.00 0.00 49 1010.3
20260503182830 10 250 4.8 8.0 0.00 0.00 0.00 53 1010.5
20260503182329 10 193 6.4 8.0 0.00 0.00 0.00 51 1010.8
20260503181825 10 243 6.4 8.0 0.00 0.00 0.00 47 1010.8
20260503181322 10 240 8.0 9.7 0.00 0.00 0.00 50 1010.9
20260503180818 10 242 4.8 4.8 0.00 0.00 0.00 47 1010.7
20260503180317 10 234 6.4 8.0 0.00 0.00 0.00 46 1010.9
20260503175813 10 196 4.8 4.8 0.00 0.00 0.00 45 1011.1
20260503175311 10 216 8.0 9.7 0.00 0.00 0.00 45 1011.2
20260503174806 10 252 6.4 8.0 0.00 0.00 0.00 49 1011.2
20260503174305 10 240 4.8 4.8 0.00 0.00 0.00 45 1011.1
20260503173800 10 242 8.0 11.3 0.00 0.00 0.00 47 1011.2
20260503173255 10 253 6.4 8.0 0.00 0.00 0.00 46 1011.3
20260503172753 9 259 6.4 8.0 0.00 0.00 0.00 49 1011.1
20260503172250 8 252 4.8 8.0 0.00 0.00 0.00 47 1011.5
20260503171746 9 201 4.8 4.8 0.00 0.00 0.00 47 1011.2
20260503171243 9 215 4.8 4.8 0.00 0.00 0.00 46 1011.2
20260503170740 9 203 3.2 3.2 0.00 0.00 0.00 50 1011.3
20260503170237 8 212 3.2 4.8 0.00 0.00 0.00 45 1011.4
20260503160159 7 163 3.2 3.2 0.00 0.00 0.00 47 1012.3
20260503150629 7 203 4.8 4.8 0.00 0.00 0.00 49 1012.7
20260503150125 7 219 3.2 3.2 0.00 0.00 0.00 50 1012.9
20260503131019 4 177 3.2 3.2 0.00 0.00 0.00 72 1013.2
20260503130517 4 253 4.8 4.8 0.00 0.00 0.00 71 1013.2
20260503110407 2 184 1.6 3.2 0.00 0.00 0.00 84 1012.7
20260503090258 2 202 1.6 1.6 0.00 0.00 0.00 83 1012.4
20260503081225 2 203 1.6 1.6 0.00 0.00 0.00 82 1012.4
20260503080721 2 207 1.6 3.2 0.00 0.00 0.00 82 1012.6
20260503080218 2 212 1.6 3.2 0.00 0.00 0.00 82 1012.3
20260503072654 3 234 4.8 4.8 0.00 0.00 0.00 81 1012.4